Amman, Jordan

11:12 AM EEST on July 07, 2015 (GMT +0300)
Mars Mount | | Change Station
CLOSE
Current Station
Personal Weather Station
Location: Amman, MARIKH
Elevation: 2953 ft
Nearby Weather Stations

Elev 2953 ft 31.93 °N, 35.92 °E | Updated 22 seconds ago

Haze
Haze
76.3 °F
Feels Like 78 °F
N
9.6
Wind Variable Wind from West
Gusts 17.4 mph

Today
High -- | Low -- °F
--% Chance of Precip.
Yesterday
High -- | Low -- °F
Precip. -- in
5:36 AM 7:45 PM
Waning Gibbous, 67% visible
Pressure 29.92 in
Visibility 3.1 miles
Clouds
Heat Index 78 °F
Dew Point 53 °F
Humidity 44%
Rainfall 0.00 in
Snow Depth Not available.
UV Not available.
Pollen Not available.
Air Quality Not available.
Flu Activity Not available.
METAR OJAM 070800Z 28008KT 5000 HZ NSC 27/06 Q1013 NOSIG

More Conditions Fewer Conditions

Pressure 29.92 in
Visibility 3.1 miles
Clouds
Heat Index 78 °F
Dew Point 53 °F
Humidity 44%
Rainfall 0.00 in
Snow Depth Not available.
UV Not available.
Pollen Not available.
Air Quality Not available.
Flu Activity Not available.
METAR OJAM 070800Z 28008KT 5000 HZ NSC 27/06 Q1013 NOSIG

More Conditions Fewer Conditions

10-Day Weather Forecast

×

Almanac

Astronomy

Jul. 07, 2015 Rise Set
Actual Time
Civil Twilight
Nautical Twilight
Astronomical Twilight
Moon
Length of Visible Light
Length of Day
Tomorrow will be .
, % of the Moon is Illuminated

Today's Extremes

Country Highs Country Lows

Community

WunderPhotos

Upload Photos

1,835,758 photos uploaded!

WunderBlogs® & News

Nearby

Air Quality

  Air Quality AQ Index Pollutant
Not available.

Snow Depth

Station Depth Elevation

Earthquake Activity

City Distance Mag. Time & Date
Minimum magnitude displayed is 2.5.

Coastal Water Temperatures

Place Temperature

Stations

Nearby Weather Stations

Station Location Temp. Windchill Dew Point Humidity Wind Precip. Elev Updated Type